MST,Max TemperatureF,Mean TemperatureF,Min TemperatureF,Max Dew PointF,MeanDew PointF,Min DewpointF,Max Humidity, Mean Humidity, Min Humidity, Max Sea Level PressureIn, Mean Sea Level PressureIn, Min Sea Level PressureIn, Max VisibilityMiles, Mean VisibilityMiles, Min VisibilityMiles, Max Wind SpeedMPH, Mean Wind SpeedMPH, Max Gust SpeedMPH,PrecipitationIn, CloudCover, Events, WindDirDegrees
2012-11-1,56,45,34,42,36,32,96,70,43,29.93,29.84,29.78,10,8,1,26,6,33,0.15,4,Rain,201
2012-11-2,50,41,31,38,34,29,92,74,56,30.15,30.06,29.92,10,10,10,15,7,20,0.00,6,,252
2012-11-3,57,42,26,41,30,24,92,62,32,30.16,30.10,30.01,10,10,10,23,5,29,0.04,1,Rain,179
2012-11-4,53,45,37,40,36,34,85,68,50,30.28,30.17,30.02,10,10,10,21,7,26,0.01,4,Rain,273
2012-11-5,64,51,37,42,36,31,82,57,31,30.16,30.06,29.96,10,10,10,36,15,43,0.01,2,Rain,247
2012-11-6,58,44,30,35,32,28,92,66,39,30.23,30.08,29.83,10,10,10,20,9,23,0.00,0,,207
2012-11-7,64,49,33,38,29,19,54,41,28,29.95,29.77,29.62,10,10,10,22,14,32,T,4,Rain,271
2012-11-8,33,29,25,26,24,23,92,74,56,30.09,29.94,29.80,10,3,0,26,12,35,0.06,8,Fog-Snow,95
2012-11-9,26,19,12,25,17,9,100,91,81,30.04,29.83,29.69,10,4,0,18,10,26,0.15,8,Fog-Rain-Snow,318
2012-11-10,12,3,-6,9,2,-9,95,88,80,30.22,30.00,29.86,10,3,1,16,10,20,0.01,7,Snow,278
2012-11-11,22,7,-8,9,2,-9,100,81,61,30.26,30.20,30.14,10,10,10,17,10,20,0.00,2,,242
2012-11-12,36,27,17,28,19,8,82,67,52,30.24,30.18,30.12,10,10,10,24,11,29,0.00,3,,237
2012-11-13,38,32,25,27,24,19,78,71,64,30.22,30.17,30.13,10,10,10,20,11,24,0.00,2,,239
2012-11-14,41,32,23,30,26,19,92,78,64,30.29,30.16,30.08,10,9,2,21,9,25,T,5,Snow,242
2012-11-15,42,32,22,28,22,18,92,70,48,30.31,30.20,30.01,10,10,10,22,8,25,0.00,0,,182
2012-11-16,46,40,34,34,28,20,79,64,48,29.99,29.96,29.93,10,10,10,24,13,28,0.00,2,,220
2012-11-17,53,41,28,31,28,25,92,67,41,30.03,29.92,29.73,10,10,10,22,8,25,0.00,0,,151
2012-11-18,50,40,30,34,24,14,75,51,26,30.01,29.82,29.64,10,10,10,23,10,29,0.00,1,,255
2012-11-19,53,40,26,28,24,17,69,51,32,30.02,29.95,29.80,10,10,10,40,18,46,0.00,0,,210
2012-11-20,57,53,48,33,31,28,50,44,38,29.86,29.80,29.77,10,10,10,43,21,53,0.00,0,,224
2012-11-21,51,40,29,38,32,18,86,68,50,29.95,29.75,29.62,10,10,4,30,10,38,T,4,Rain,263
2012-11-22,32,24,15,20,16,13,100,77,54,30.59,30.29,29.97,10,7,0,17,7,23,0.00,4,Fog,282
2012-11-23,52,34,16,25,19,13,84,59,34,30.53,30.23,29.95,10,10,10,30,13,36,0.00,0,,190
2012-11-24,49,39,28,31,27,20,92,62,31,30.07,29.97,29.88,10,10,4,24,10,30,T,7,Snow,267
2012-11-25,32,26,20,29,26,19,100,93,85,30.31,30.09,29.96,10,7,1,13,4,20,T,7,Snow,306
2012-11-26,35,24,12,21,15,9,100,74,47,30.36,30.25,30.16,10,8,0,9,4,10,0.00,2,Fog,136
2012-11-27,40,28,16,20,14,9,73,53,33,30.22,30.16,30.08,10,10,10,10,5,12,0.00,0,,153
2012-11-28,54,41,27,25,21,17,75,51,26,30.07,29.97,29.79,10,10,10,13,5,14,0.00,0,,137
2012-11-29,54,45,35,34,28,22,79,59,38,29.88,29.83,29.76,10,10,10,25,14,31,T,2,,237
2012-11-30,54,46,38,39,31,25,83,61,38,29.74,29.65,29.56,10,10,10,31,11,37,T,3,Rain,228